Location: Cactus School
(34.5700°N, 118.0931°W)
Time: 18:43:24
(UTC-07:00)

Transit 4A - Pass Details

Date: 18 April 2024
Orbit: 871 x 971 km, 66.8° (Epoch: 21 May)

Event Time Altitude Azimuth Distance (km) Brightness Sun altitude
Rises 14:35:36 0° 236° (SW) 3,548 11.4 56.8°
Reaches altitude 10° 14:38:30 10° 248° (WSW) 2,592 11.0 56.3°
Maximum altitude 14:43:34 28° 306° (NW) 1,622 9.7 55.5°
Drops below altitude 10° 14:48:34 10° 4° (N) 2,550 10.1 54.6°
Sets 14:51:26 0° 16° (NNE) 3,481 10.6 54.1°
